TIME,�t�@���q�[�^�m���b�g���n,�t���O,�t�@���q�[�^�mMJ�n,�t���O
2004/3/1 0:00,0,0,0,0
2004/3/1 0:15,0,0,0,0
2004/3/1 0:30,0,0,0,0
2004/3/1 0:45,0,0,0,0
2004/3/1 1:00,0,0,0,0
2004/3/1 1:15,0,0,0,0
2004/3/1 1:30,0,0,0,0
2004/3/1 1:45,0,0,0,0
2004/3/1 2:00,0,0,0,0
2004/3/1 2:15,0,0,0,0
2004/3/1 2:30,0,0,0,0
2004/3/1 2:45,0,0,0,0
2004/3/1 3:00,0,0,0,0
2004/3/1 3:15,0,0,0,0
2004/3/1 3:30,0,0,0,0
2004/3/1 3:45,0,0,0,0
2004/3/1 4:00,0,0,0,0
2004/3/1 4:15,6.60563E-05,0,8.08,0
2004/3/1 4:30,0.000100133,0,12.25,0
2004/3/1 4:45,0.00008775,0,10.73,0
2004/3/1 5:00,0.00006864,0,8.4,0
2004/3/1 5:15,4.44113E-05,0,5.44,0
2004/3/1 5:30,4.29975E-05,0,5.26,0
2004/3/1 5:45,3.23213E-05,0,3.95,0
2004/3/1 6:00,0.000021645,0,2.64,0
2004/3/1 6:15,0.000021645,0,2.64,0
2004/3/1 6:30,0.000021645,0,2.65,0
2004/3/1 6:45,4.77263E-05,0,1.76,0
2004/3/1 7:00,0,0,0,0
2004/3/1 7:15,0,0,0,0
2004/3/1 7:30,0,0,0,0
2004/3/1 7:45,0,0,0,0
2004/3/1 8:00,0,0,0,0
2004/3/1 8:15,0,0,0,0
2004/3/1 8:30,0,0,0,0
2004/3/1 8:45,0,0,0,0
2004/3/1 9:00,0,0,0,0
2004/3/1 9:15,0,0,0,0
2004/3/1 9:30,0,0,0,0
2004/3/1 9:45,0,0,0,0
2004/3/1 10:00,0,0,0,0
2004/3/1 10:15,0,0,0,0
2004/3/1 10:30,0,0,0,0
2004/3/1 10:45,0,0,0,0
2004/3/1 11:00,0,0,0,0
2004/3/1 11:15,0,0,0,0
2004/3/1 11:30,0,0,0,0
2004/3/1 11:45,0,0,0,0
2004/3/1 12:00,0,0,0,0
2004/3/1 12:15,0,0,0,0
2004/3/1 12:30,0,0,0,0
2004/3/1 12:45,0,0,0,0
2004/3/1 13:00,0,0,0,0
2004/3/1 13:15,0,0,0,0
2004/3/1 13:30,0,0,0,0
2004/3/1 13:45,0,0,0,0
2004/3/1 14:00,0,0,0,0
2004/3/1 14:15,0,0,0,0
2004/3/1 14:30,0,0,0,0
2004/3/1 14:45,0,0,0,0
2004/3/1 15:00,0,0,0,0
2004/3/1 15:15,0,0,0,0
2004/3/1 15:30,0,0,0,0
2004/3/1 15:45,0,0,0,0
2004/3/1 16:00,0,0,0,0
2004/3/1 16:15,0,0,0,0
2004/3/1 16:30,0,0,0,0
2004/3/1 16:45,0,0,0,0
2004/3/1 17:00,0,0,0,0
2004/3/1 17:15,0,0,0,0
2004/3/1 17:30,0,0,0,0
2004/3/1 17:45,0,0,0,0
2004/3/1 18:00,0,0,0,0
2004/3/1 18:15,0,0,0,0
2004/3/1 18:30,0,0,0,0
2004/3/1 18:45,0,0,0,0
2004/3/1 19:00,0,0,0,0
2004/3/1 19:15,0,0,0,0
2004/3/1 19:30,0,0,0,0
2004/3/1 19:45,0,0,0,0
2004/3/1 20:00,0,0,0,0
2004/3/1 20:15,0,0,0,0
2004/3/1 20:30,0,0,0,0
2004/3/1 20:45,0,0,0,0
2004/3/1 21:00,0,0,0,0
2004/3/1 21:15,0,0,0,0
2004/3/1 21:30,0,0,0,0
2004/3/1 21:45,0,0,0,0
2004/3/1 22:00,0,0,0,0
2004/3/1 22:15,0,0,0,0
2004/3/1 22:30,0,0,0,0
2004/3/1 22:45,0,0,0,0
2004/3/1 23:00,0,0,0,0
2004/3/1 23:15,0,0,0,0
2004/3/1 23:30,0,0,0,0
2004/3/1 23:45,0,0,0,0
2004/3/2 0:00,0,0,0,0
2004/3/2 0:15,0,0,0,0
2004/3/2 0:30,0,0,0,0
2004/3/2 0:45,0,0,0,0
2004/3/2 1:00,0,0,0,0
2004/3/2 1:15,0,0,0,0
2004/3/2 1:30,0,0,0,0
2004/3/2 1:45,0,0,0,0
2004/3/2 2:00,0,0,0,0
2004/3/2 2:15,0,0,0,0
2004/3/2 2:30,0,0,0,0
2004/3/2 2:45,0,0,0,0
2004/3/2 3:00,0,0,0,0
2004/3/2 3:15,0,0,0,0
2004/3/2 3:30,0,0,0,0
2004/3/2 3:45,0,0,0,0
2004/3/2 4:00,0,0,0,0
2004/3/2 4:15,0,0,0,0
2004/3/2 4:30,0,0,0,0
2004/3/2 4:45,8.79938E-05,0,10.76,0
2004/3/2 5:00,9.27713E-05,0,11.35,0
2004/3/2 5:15,6.13275E-05,0,7.5,0
2004/3/2 5:30,5.05538E-05,0,6.19,0
2004/3/2 5:45,3.97313E-05,0,4.86,0
2004/3/2 6:00,3.47588E-05,0,4.25,0
2004/3/2 6:15,3.12488E-05,0,3.82,0
2004/3/2 6:30,3.01275E-05,0,3.69,0
2004/3/2 6:45,5.94263E-05,0,3.41,0
2004/3/2 7:00,0,0,0,0
2004/3/2 7:15,0,0,0,0
2004/3/2 7:30,0,0,0,0
2004/3/2 7:45,0,0,0,0
2004/3/2 8:00,0,0,0,0
2004/3/2 8:15,0,0,0,0
2004/3/2 8:30,0,0,0,0
2004/3/2 8:45,0,0,0,0
2004/3/2 9:00,0,0,0,0
2004/3/2 9:15,0,0,0,0
2004/3/2 9:30,0,0,0,0
2004/3/2 9:45,0,0,0,0
2004/3/2 10:00,0,0,0,0
2004/3/2 10:15,0,0,0,0
2004/3/2 10:30,0,0,0,0
2004/3/2 10:45,0,0,0,0
2004/3/2 11:00,0,0,0,0
2004/3/2 11:15,0,0,0,0
2004/3/2 11:30,0,0,0,0
2004/3/2 11:45,0,0,0,0
2004/3/2 12:00,0,0,0,0
2004/3/2 12:15,0,0,0,0
2004/3/2 12:30,0,0,0,0
2004/3/2 12:45,0,0,0,0
2004/3/2 13:00,0,0,0,0
2004/3/2 13:15,0,0,0,0
2004/3/2 13:30,0,0,0,0
2004/3/2 13:45,0,0,0,0
2004/3/2 14:00,0,0,0,0
2004/3/2 14:15,0,0,0,0
2004/3/2 14:30,0,0,0,0
2004/3/2 14:45,0,0,0,0
2004/3/2 15:00,0,0,0,0
2004/3/2 15:15,0,0,0,0
2004/3/2 15:30,0,0,0,0
2004/3/2 15:45,0,0,0,0
2004/3/2 16:00,0,0,0,0
2004/3/2 16:15,0,0,0,0
2004/3/2 16:30,0,0,0,0
2004/3/2 16:45,0,0,0,0
2004/3/2 17:00,0,0,0,0
2004/3/2 17:15,0,0,0,0
2004/3/2 17:30,0,0,0,0
2004/3/2 17:45,0,0,0,0
2004/3/2 18:00,0,0,0,0
2004/3/2 18:15,0,0,0,0
2004/3/2 18:30,0,0,0,0
2004/3/2 18:45,0,0,0,0
2004/3/2 19:00,0,0,0,0
2004/3/2 19:15,0,0,0,0
2004/3/2 19:30,0,0,0,0
2004/3/2 19:45,0,0,0,0
2004/3/2 20:00,0,0,0,0
2004/3/2 20:15,0,0,0,0
2004/3/2 20:30,0,0,0,0
2004/3/2 20:45,0,0,0,0
2004/3/2 21:00,0,0,0,0
2004/3/2 21:15,0,0,0,0
2004/3/2 21:30,0,0,0,0
2004/3/2 21:45,0,0,0,0
2004/3/2 22:00,0,0,0,0
2004/3/2 22:15,0,0,0,0
2004/3/2 22:30,0,0,0,0
2004/3/2 22:45,0,0,0,0
2004/3/2 23:00,0,0,0,0
2004/3/2 23:15,0,0,0,0
2004/3/2 23:30,0,0,0,0
2004/3/2 23:45,0,0,0,0
2004/3/3 0:00,0,0,0,0
2004/3/3 0:15,0,0,0,0
2004/3/3 0:30,0,0,0,0
2004/3/3 0:45,0,0,0,0
2004/3/3 1:00,0,0,0,0
2004/3/3 1:15,0,0,0,0
2004/3/3 1:30,0,0,0,0
2004/3/3 1:45,0,0,0,0
2004/3/3 2:00,0,0,0,0
2004/3/3 2:15,0,0,0,0
2004/3/3 2:30,0,0,0,0
2004/3/3 2:45,0,0,0,0
2004/3/3 3:00,0,0,0,0
2004/3/3 3:15,0,0,0,0
2004/3/3 3:30,0,0,0,0
2004/3/3 3:45,0,0,0,0
2004/3/3 4:00,0,0,0,0
2004/3/3 4:15,0,0,0,0
2004/3/3 4:30,0,0,0,0
2004/3/3 4:45,0.00004914,0,6.01,0
2004/3/3 5:00,0.00010179,0,12.45,0
2004/3/3 5:15,9.96938E-05,0,12.2,0
2004/3/3 5:30,9.30638E-05,0,11.39,0
2004/3/3 5:45,7.86825E-05,0,9.62,0
2004/3/3 6:00,6.66413E-05,0,8.15,0
2004/3/3 6:15,6.28875E-05,0,7.69,0
2004/3/3 6:30,5.35275E-05,0,6.55,0
2004/3/3 6:45,6.42038E-05,0,4.23,0
2004/3/3 7:00,0,0,0,0
2004/3/3 7:15,0,0,0,0
2004/3/3 7:30,0,0,0,0
2004/3/3 7:45,0,0,0,0
2004/3/3 8:00,0,0,0,0
2004/3/3 8:15,0,0,0,0
2004/3/3 8:30,0,0,0,0
2004/3/3 8:45,0,0,0,0
2004/3/3 9:00,0,0,0,0
2004/3/3 9:15,0,0,0,0
2004/3/3 9:30,0,0,0,0
2004/3/3 9:45,0,0,0,0
2004/3/3 10:00,0,0,0,0
2004/3/3 10:15,0,0,0,0
2004/3/3 10:30,0,0,0,0
2004/3/3 10:45,0,0,0,0
2004/3/3 11:00,0,0,0,0
2004/3/3 11:15,0,0,0,0
2004/3/3 11:30,0,0,0,0
2004/3/3 11:45,0,0,0,0
2004/3/3 12:00,0,0,0,0
2004/3/3 12:15,0,0,0,0
2004/3/3 12:30,0,0,0,0
2004/3/3 12:45,0,0,0,0
2004/3/3 13:00,0,0,0,0
2004/3/3 13:15,0,0,0,0
2004/3/3 13:30,0,0,0,0
2004/3/3 13:45,0,0,0,0
2004/3/3 14:00,0,0,0,0
2004/3/3 14:15,0,0,0,0
2004/3/3 14:30,0,0,0,0
2004/3/3 14:45,0,0,0,0
2004/3/3 15:00,0,0,0,0
2004/3/3 15:15,0,0,0,0
2004/3/3 15:30,0,0,0,0
2004/3/3 15:45,0,0,0,0
2004/3/3 16:00,0,0,0,0
2004/3/3 16:15,0,0,0,0
2004/3/3 16:30,0,0,0,0
2004/3/3 16:45,0,0,0,0
2004/3/3 17:00,0,0,0,0
2004/3/3 17:15,0,0,0,0
2004/3/3 17:30,0,0,0,0
2004/3/3 17:45,0,0,0,0
2004/3/3 18:00,0,0,0,0
2004/3/3 18:15,0,0,0,0
2004/3/3 18:30,0,0,0,0
2004/3/3 18:45,0,0,0,0
2004/3/3 19:00,0,0,0,0
2004/3/3 19:15,0,0,0,0
2004/3/3 19:30,0,0,0,0
2004/3/3 19:45,0,0,0,0
2004/3/3 20:00,0,0,0,0
2004/3/3 20:15,0,0,0,0
2004/3/3 20:30,0,0,0,0
2004/3/3 20:45,0,0,0,0
2004/3/3 21:00,0,0,0,0
2004/3/3 21:15,0,0,0,0
2004/3/3 21:30,0,0,0,0
2004/3/3 21:45,0,0,0,0
2004/3/3 22:00,0,0,0,0
2004/3/3 22:15,0,0,0,0
2004/3/3 22:30,0,0,0,0
2004/3/3 22:45,0,0,0,0
2004/3/3 23:00,0,0,0,0
2004/3/3 23:15,0,0,0,0
2004/3/3 23:30,0,0,0,0
2004/3/3 23:45,0,0,0,0
2004/3/4 0:00,0,0,0,0
2004/3/4 0:15,0,0,0,0
2004/3/4 0:30,0,0,0,0
2004/3/4 0:45,0,0,0,0
2004/3/4 1:00,0,0,0,0
2004/3/4 1:15,0,0,0,0
2004/3/4 1:30,0,0,0,0
2004/3/4 1:45,0,0,0,0
2004/3/4 2:00,0,0,0,0
2004/3/4 2:15,0,0,0,0
2004/3/4 2:30,0,0,0,0
2004/3/4 2:45,0,0,0,0
2004/3/4 3:00,0,0,0,0
2004/3/4 3:15,0,0,0,0
2004/3/4 3:30,0,0,0,0
2004/3/4 3:45,0,0,0,0
2004/3/4 4:00,0,0,0,0
2004/3/4 4:15,0,0,0,0
2004/3/4 4:30,0,0,0,0
2004/3/4 4:45,0.000085995,0,10.52,0
2004/3/4 5:00,0.000093015,0,11.38,0
2004/3/4 5:15,7.78538E-05,0,9.52,0
2004/3/4 5:30,6.65438E-05,0,8.14,0
2004/3/4 5:45,0.0000585,0,7.16,0
2004/3/4 6:00,5.80125E-05,0,7.1,0
2004/3/4 6:15,4.74825E-05,0,5.81,0
2004/3/4 6:30,0.000033345,0,4.08,0
2004/3/4 6:45,3.69038E-05,0,2.67,0
2004/3/4 7:00,0,0,0,0
2004/3/4 7:15,0,0,0,0
2004/3/4 7:30,0,0,0,0
2004/3/4 7:45,0,0,0,0
2004/3/4 8:00,0,0,0,0
2004/3/4 8:15,0,0,0,0
2004/3/4 8:30,4.875E-08,0,0,0
2004/3/4 8:45,0,0,0,0
2004/3/4 9:00,0,0,0,0
2004/3/4 9:15,0,0,0,0
2004/3/4 9:30,0,0,0,0
2004/3/4 9:45,0,0,0,0
2004/3/4 10:00,0,0,0,0
2004/3/4 10:15,0,0,0,0
2004/3/4 10:30,0,0,0,0
2004/3/4 10:45,0,0,0,0
2004/3/4 11:00,0,0,0,0
2004/3/4 11:15,0,0,0,0
2004/3/4 11:30,0,0,0,0
2004/3/4 11:45,0,0,0,0
2004/3/4 12:00,0,0,0,0
2004/3/4 12:15,0,0,0,0
2004/3/4 12:30,0,0,0,0
2004/3/4 12:45,0,0,0,0
2004/3/4 13:00,0,0,0,0
2004/3/4 13:15,0,0,0,0
2004/3/4 13:30,0,0,0,0
2004/3/4 13:45,0,0,0,0
2004/3/4 14:00,0,0,0,0
2004/3/4 14:15,0,0,0,0
2004/3/4 14:30,0,0,0,0
2004/3/4 14:45,0,0,0,0
2004/3/4 15:00,0,0,0,0
2004/3/4 15:15,0,0,0,0
2004/3/4 15:30,0,0,0,0
2004/3/4 15:45,0,0,0,0
2004/3/4 16:00,0,0,0,0
2004/3/4 16:15,0,0,0,0
2004/3/4 16:30,0,0,0,0
2004/3/4 16:45,0,0,0,0
2004/3/4 17:00,0,0,0,0
2004/3/4 17:15,0,0,0,0
2004/3/4 17:30,0,0,0,0
2004/3/4 17:45,0,0,0,0
2004/3/4 18:00,0,0,0,0
2004/3/4 18:15,0,0,0,0
2004/3/4 18:30,0,0,0,0
2004/3/4 18:45,0,0,0,0
2004/3/4 19:00,0,0,0,0
2004/3/4 19:15,0,0,0,0
2004/3/4 19:30,0,0,0,0
2004/3/4 19:45,0,0,0,0
2004/3/4 20:00,0,0,0,0
2004/3/4 20:15,0,0,0,0
2004/3/4 20:30,0,0,0,0
2004/3/4 20:45,0,0,0,0
2004/3/4 21:00,0,0,0,0
2004/3/4 21:15,0,0,0,0
2004/3/4 21:30,0,0,0,0
2004/3/4 21:45,0,0,0,0
2004/3/4 22:00,0,0,0,0
2004/3/4 22:15,0,0,0,0
2004/3/4 22:30,0,0,0,0
2004/3/4 22:45,0,0,0,0
2004/3/4 23:00,0,0,0,0
2004/3/4 23:15,0,0,0,0
2004/3/4 23:30,0,0,0,0
2004/3/4 23:45,0,0,0,0
2004/3/5 0:00,0,0,0,0
2004/3/5 0:15,0,0,0,0
2004/3/5 0:30,0,0,0,0
2004/3/5 0:45,0,0,0,0
2004/3/5 1:00,0,0,0,0
2004/3/5 1:15,0,0,0,0
2004/3/5 1:30,0,0,0,0
2004/3/5 1:45,0,0,0,0
2004/3/5 2:00,0,0,0,0
2004/3/5 2:15,0,0,0,0
2004/3/5 2:30,0,0,0,0
2004/3/5 2:45,0,0,0,0
2004/3/5 3:00,0,0,0,0
2004/3/5 3:15,0,0,0,0
2004/3/5 3:30,0,0,0,0
2004/3/5 3:45,0,0,0,0
2004/3/5 4:00,0,0,0,0
2004/3/5 4:15,0,0,0,0
2004/3/5 4:30,0,0,0,0
2004/3/5 4:45,7.66838E-05,0,9.38,0
2004/3/5 5:00,0.00010179,0,12.45,0
2004/3/5 5:15,9.77925E-05,0,11.97,0
2004/3/5 5:30,8.25338E-05,0,10.1,0
2004/3/5 5:45,6.25463E-05,0,7.65,0
2004/3/5 6:00,0.000021645,0,2.65,0
2004/3/5 6:15,0.000021645,0,2.65,0
2004/3/5 6:30,0.000021645,0,2.64,0
2004/3/5 6:45,0.000041925,0,0.88,0
2004/3/5 7:00,0,0,0,0
2004/3/5 7:15,0,0,0,0
2004/3/5 7:30,0,0,0,0
2004/3/5 7:45,0,0,0,0
2004/3/5 8:00,0,0,0,0
2004/3/5 8:15,0,0,0,0
2004/3/5 8:30,0,0,0,0
2004/3/5 8:45,0,0,0,0
2004/3/5 9:00,0,0,0,0
2004/3/5 9:15,0,0,0,0
2004/3/5 9:30,0,0,0,0
2004/3/5 9:45,0,0,0,0
2004/3/5 10:00,0,0,0,0
2004/3/5 10:15,0,0,0,0
2004/3/5 10:30,0,0,0,0
2004/3/5 10:45,0,0,0,0
2004/3/5 11:00,0,0,0,0
2004/3/5 11:15,0,0,0,0
2004/3/5 11:30,0,0,0,0
2004/3/5 11:45,0,0,0,0
2004/3/5 12:00,0,0,0,0
2004/3/5 12:15,0,0,0,0
2004/3/5 12:30,0,0,0,0
2004/3/5 12:45,0,0,0,0
2004/3/5 13:00,0,0,0,0
2004/3/5 13:15,0,0,0,0
2004/3/5 13:30,0,0,0,0
2004/3/5 13:45,0,0,0,0
2004/3/5 14:00,0,0,0,0
2004/3/5 14:15,0,0,0,0
2004/3/5 14:30,0,0,0,0
2004/3/5 14:45,0,0,0,0
2004/3/5 15:00,0,0,0,0
2004/3/5 15:15,0,0,0,0
2004/3/5 15:30,0,0,0,0
2004/3/5 15:45,0,0,0,0
2004/3/5 16:00,0,0,0,0
2004/3/5 16:15,0,0,0,0
2004/3/5 16:30,0,0,0,0
2004/3/5 16:45,0,0,0,0
2004/3/5 17:00,0,0,0,0
2004/3/5 17:15,0,0,0,0
2004/3/5 17:30,0,0,0,0
2004/3/5 17:45,0,0,0,0
2004/3/5 18:00,0,0,0,0
2004/3/5 18:15,0,0,0,0
2004/3/5 18:30,0,0,0,0
2004/3/5 18:45,0,0,0,0
2004/3/5 19:00,0,0,0,0
2004/3/5 19:15,0,0,0,0
2004/3/5 19:30,0,0,0,0
2004/3/5 19:45,0,0,0,0
2004/3/5 20:00,0,0,0,0
2004/3/5 20:15,0,0,0,0
2004/3/5 20:30,0,0,0,0
2004/3/5 20:45,0,0,0,0
2004/3/5 21:00,0,0,0,0
2004/3/5 21:15,0,0,0,0
2004/3/5 21:30,0,0,0,0
2004/3/5 21:45,0,0,0,0
2004/3/5 22:00,0,0,0,0
2004/3/5 22:15,0,0,0,0
2004/3/5 22:30,0,0,0,0
2004/3/5 22:45,0,0,0,0
2004/3/5 23:00,0,0,0,0
2004/3/5 23:15,0,0,0,0
2004/3/5 23:30,0,0,0,0
2004/3/5 23:45,0,0,0,0
2004/3/6 0:00,0,0,0,0
2004/3/6 0:15,0,0,0,0
2004/3/6 0:30,0,0,0,0
2004/3/6 0:45,0,0,0,0
2004/3/6 1:00,0,0,0,0
2004/3/6 1:15,0,0,0,0
2004/3/6 1:30,0,0,0,0
2004/3/6 1:45,0,0,0,0
2004/3/6 2:00,0,0,0,0
2004/3/6 2:15,0,0,0,0
2004/3/6 2:30,0,0,0,0
2004/3/6 2:45,0,0,0,0
2004/3/6 3:00,0,0,0,0
2004/3/6 3:15,0,0,0,0
2004/3/6 3:30,0,0,0,0
2004/3/6 3:45,0,0,0,0
2004/3/6 4:00,0,0,0,0
2004/3/6 4:15,0,0,0,0
2004/3/6 4:30,0,0,0,0
2004/3/6 4:45,0,0,0,0
2004/3/6 5:00,0,0,0,0
2004/3/6 5:15,0,0,0,0
2004/3/6 5:30,1.8525E-06,0,0.23,0
2004/3/6 5:45,0.000101693,0,12.44,0
2004/3/6 6:00,0.000101205,0,12.38,0
2004/3/6 6:15,8.39475E-05,0,10.27,0
2004/3/6 6:30,6.04013E-05,0,7.39,0
2004/3/6 6:45,5.93288E-05,0,7.26,0
2004/3/6 7:00,0.000040365,0,4.94,0
2004/3/6 7:15,2.24738E-05,0,2.75,0
2004/3/6 7:30,0.00003276,0,0,0
2004/3/6 7:45,0,0,0,0
2004/3/6 8:00,0,0,0,0
2004/3/6 8:15,0,0,0,0
2004/3/6 8:30,0,0,0,0
2004/3/6 8:45,0,0,0,0
2004/3/6 9:00,0,0,0,0
2004/3/6 9:15,0,0,0,0
2004/3/6 9:30,0,0,0,0
2004/3/6 9:45,0,0,0,0
2004/3/6 10:00,0,0,0,0
2004/3/6 10:15,0,0,0,0
2004/3/6 10:30,6.11813E-05,0,7.48,0
2004/3/6 10:45,0.000074295,0,9.09,0
2004/3/6 11:00,5.65013E-05,0,6.91,0
2004/3/6 11:15,0.00005538,0,6.78,0
2004/3/6 11:30,0.000038415,0,4.7,0
2004/3/6 11:45,0.000021645,0,2.64,0
2004/3/6 12:00,3.36375E-05,0,0,0
2004/3/6 12:15,0,0,0,0
2004/3/6 12:30,0,0,0,0
2004/3/6 12:45,0,0,0,0
2004/3/6 13:00,0,0,0,0
2004/3/6 13:15,0,0,0,0
2004/3/6 13:30,1.90613E-05,0,2.33,0
2004/3/6 13:45,7.28813E-05,0,8.91,0
2004/3/6 14:00,5.82075E-05,0,7.12,0
2004/3/6 14:15,5.09925E-05,0,6.24,0
2004/3/6 14:30,5.14313E-05,0,6.29,0
2004/3/6 14:45,2.68125E-05,0,3.28,0
2004/3/6 15:00,3.39788E-05,0,4.16,0
2004/3/6 15:15,3.06638E-05,0,3.75,0
2004/3/6 15:30,3.80738E-05,0,4.66,0
2004/3/6 15:45,0.000031395,0,3.84,0
2004/3/6 16:00,2.97863E-05,0,3.65,0
2004/3/6 16:15,0.000021645,0,2.64,0
2004/3/6 16:30,0.000046995,0,1.77,0
2004/3/6 16:45,0,0,0,0
2004/3/6 17:00,0,0,0,0
2004/3/6 17:15,0,0,0,0
2004/3/6 17:30,0,0,0,0
2004/3/6 17:45,0,0,0,0
2004/3/6 18:00,0,0,0,0
2004/3/6 18:15,0,0,0,0
2004/3/6 18:30,0,0,0,0
2004/3/6 18:45,0,0,0,0
2004/3/6 19:00,0,0,0,0
2004/3/6 19:15,0,0,0,0
2004/3/6 19:30,0,0,0,0
2004/3/6 19:45,0,0,0,0
2004/3/6 20:00,0,0,0,0
2004/3/6 20:15,0,0,0,0
2004/3/6 20:30,0,0,0,0
2004/3/6 20:45,0,0,0,0
2004/3/6 21:00,0,0,0,0
2004/3/6 21:15,3.43688E-05,0,4.21,0
2004/3/6 21:30,0.000071565,0,8.76,0
2004/3/6 21:45,4.18275E-05,0,5.11,0
2004/3/6 22:00,0.00004797,0,5.87,0
2004/3/6 22:15,5.74275E-05,0,3.33,0
2004/3/6 22:30,0,0,0,0
2004/3/6 22:45,0,0,0,0
2004/3/6 23:00,0,0,0,0
2004/3/6 23:15,0,0,0,0
2004/3/6 23:30,0,0,0,0
2004/3/6 23:45,0,0,0,0
2004/3/7 0:00,0,0,0,0
2004/3/7 0:15,0,0,0,0
2004/3/7 0:30,0,0,0,0
2004/3/7 0:45,0,0,0,0
2004/3/7 1:00,0,0,0,0
2004/3/7 1:15,0,0,0,0
2004/3/7 1:30,0,0,0,0
2004/3/7 1:45,0,0,0,0
2004/3/7 2:00,0,0,0,0
2004/3/7 2:15,0,0,0,0
2004/3/7 2:30,0,0,0,0
2004/3/7 2:45,0,0,0,0
2004/3/7 3:00,0,0,0,0
2004/3/7 3:15,0,0,0,0
2004/3/7 3:30,0,0,0,0
2004/3/7 3:45,0,0,0,0
2004/3/7 4:00,0,0,0,0
2004/3/7 4:15,0,0,0,0
2004/3/7 4:30,0,0,0,0
2004/3/7 4:45,0,0,0,0
2004/3/7 5:00,0,0,0,0
2004/3/7 5:15,0.00009438,0,11.55,0
2004/3/7 5:30,0.000101303,0,12.39,0
2004/3/7 5:45,0.000085605,0,10.47,0
2004/3/7 6:00,6.58125E-05,0,8.05,0
2004/3/7 6:15,0.00006006,0,7.35,0
2004/3/7 6:30,6.12788E-05,0,2.4,0
2004/3/7 6:45,0,0,0,0
2004/3/7 7:00,0,0,0,0
2004/3/7 7:15,0,0,0,0
2004/3/7 7:30,0,0,0,0
2004/3/7 7:45,0,0,0,0
2004/3/7 8:00,0,0,0,0
2004/3/7 8:15,0,0,0,0
2004/3/7 8:30,0,0,0,0
2004/3/7 8:45,0,0,0,0
2004/3/7 9:00,0,0,0,0
2004/3/7 9:15,0,0,0,0
2004/3/7 9:30,0,0,0,0
2004/3/7 9:45,0,0,0,0
2004/3/7 10:00,0,0,0,0
2004/3/7 10:15,0,0,0,0
2004/3/7 10:30,0,0,0,0
2004/3/7 10:45,0,0,0,0
2004/3/7 11:00,0,0,0,0
2004/3/7 11:15,0,0,0,0
2004/3/7 11:30,0,0,0,0
2004/3/7 11:45,0,0,0,0
2004/3/7 12:00,0,0,0,0
2004/3/7 12:15,0,0,0,0
2004/3/7 12:30,0,0,0,0
2004/3/7 12:45,0,0,0,0
2004/3/7 13:00,0,0,0,0
2004/3/7 13:15,0,0,0,0
2004/3/7 13:30,0,0,0,0
2004/3/7 13:45,0,0,0,0
2004/3/7 14:00,0,0,0,0
2004/3/7 14:15,6.14738E-05,0,7.52,0
2004/3/7 14:30,0.00010179,0,12.45,0
2004/3/7 14:45,9.71588E-05,0,11.88,0
2004/3/7 15:00,8.47763E-05,0,10.37,0
2004/3/7 15:15,7.59038E-05,0,9.29,0
2004/3/7 15:30,6.61538E-05,0,8.09,0
2004/3/7 15:45,0.000039585,0,4.84,0
2004/3/7 16:00,2.62763E-05,0,3.21,0
2004/3/7 16:15,5.45025E-05,0,2.87,0
2004/3/7 16:30,0,0,0,0
2004/3/7 16:45,0,0,0,0
2004/3/7 17:00,0,0,0,0
2004/3/7 17:15,0,0,0,0
2004/3/7 17:30,0,0,0,0
2004/3/7 17:45,0,0,0,0
2004/3/7 18:00,0,0,0,0
2004/3/7 18:15,0,0,0,0
2004/3/7 18:30,0,0,0,0
2004/3/7 18:45,0,0,0,0
2004/3/7 19:00,0,0,0,0
2004/3/7 19:15,0,0,0,0
2004/3/7 19:30,0,0,0,0
2004/3/7 19:45,0,0,0,0
2004/3/7 20:00,0,0,0,0
2004/3/7 20:15,0,0,0,0
2004/3/7 20:30,0,0,0,0
2004/3/7 20:45,0,0,0,0
2004/3/7 21:00,2.42775E-05,0,2.97,0
2004/3/7 21:15,5.04075E-05,0,6.17,0
2004/3/7 21:30,5.11388E-05,0,6.25,0
2004/3/7 21:45,3.03225E-05,0,3.71,0
2004/3/7 22:00,5.84513E-05,0,7.15,0
2004/3/7 22:15,3.81713E-05,0,4.67,0
2004/3/7 22:30,4.92863E-05,0,1.76,0
2004/3/7 22:45,0,0,0,0
2004/3/7 23:00,0,0,0,0
2004/3/7 23:15,0,0,0,0
2004/3/7 23:30,0,0,0,0
2004/3/7 23:45,0,0,0,0
2004/3/8 0:00,0,0,0,0
2004/3/8 0:15,0,0,0,0
2004/3/8 0:30,0,0,0,0
2004/3/8 0:45,0,0,0,0
2004/3/8 1:00,0,0,0,0
2004/3/8 1:15,0,0,0,0
2004/3/8 1:30,0,0,0,0
2004/3/8 1:45,0,0,0,0
2004/3/8 2:00,0,0,0,0
2004/3/8 2:15,0,0,0,0
2004/3/8 2:30,0,0,0,0
2004/3/8 2:45,0,0,0,0
2004/3/8 3:00,0,0,0,0
2004/3/8 3:15,0,0,0,0
2004/3/8 3:30,0,0,0,0
2004/3/8 3:45,0,0,0,0
2004/3/8 4:00,0,0,0,0
2004/3/8 4:15,7.32713E-05,0,8.96,0
2004/3/8 4:30,0.000101498,0,12.42,0
2004/3/8 4:45,8.79938E-05,0,10.76,0
2004/3/8 5:00,7.47338E-05,0,9.14,0
2004/3/8 5:15,0.00007293,0,8.92,0
2004/3/8 5:30,4.42163E-05,0,5.41,0
2004/3/8 5:45,3.64163E-05,0,4.45,0
2004/3/8 6:00,7.36125E-05,0,9,0
2004/3/8 6:15,4.45088E-05,0,5.45,0
2004/3/8 6:30,4.29488E-05,0,5.26,0
2004/3/8 6:45,3.68063E-05,0,0,0
2004/3/8 7:00,0,0,0,0
2004/3/8 7:15,0,0,0,0
2004/3/8 7:30,0,0,0,0
2004/3/8 7:45,0,0,0,0
2004/3/8 8:00,0,0,0,0
2004/3/8 8:15,0,0,0,0
2004/3/8 8:30,0,0,0,0
2004/3/8 8:45,0,0,0,0
2004/3/8 9:00,0,0,0,0
2004/3/8 9:15,0,0,0,0
2004/3/8 9:30,0,0,0,0
2004/3/8 9:45,0,0,0,0
2004/3/8 10:00,0,0,0,0
2004/3/8 10:15,0,0,0,0
2004/3/8 10:30,0,0,0,0
2004/3/8 10:45,0,0,0,0
2004/3/8 11:00,0,0,0,0
2004/3/8 11:15,0,0,0,0
2004/3/8 11:30,0,0,0,0
2004/3/8 11:45,0,0,0,0
2004/3/8 12:00,0,0,0,0
2004/3/8 12:15,0,0,0,0
2004/3/8 12:30,0,0,0,0
2004/3/8 12:45,0,0,0,0
2004/3/8 13:00,0,0,0,0
2004/3/8 13:15,0,0,0,0
2004/3/8 13:30,0,0,0,0
2004/3/8 13:45,0,0,0,0
2004/3/8 14:00,0,0,0,0
2004/3/8 14:15,0,0,0,0
2004/3/8 14:30,0,0,0,0
2004/3/8 14:45,0,0,0,0
2004/3/8 15:00,0,0,0,0
2004/3/8 15:15,0,0,0,0
2004/3/8 15:30,0,0,0,0
2004/3/8 15:45,0,0,0,0
2004/3/8 16:00,0,0,0,0
2004/3/8 16:15,0,0,0,0
2004/3/8 16:30,0,0,0,0
2004/3/8 16:45,0,0,0,0
2004/3/8 17:00,0,0,0,0
2004/3/8 17:15,0,0,0,0
2004/3/8 17:30,0,0,0,0
2004/3/8 17:45,0,0,0,0
2004/3/8 18:00,0,0,0,0
2004/3/8 18:15,0,0,0,0
2004/3/8 18:30,0,0,0,0
2004/3/8 18:45,0,0,0,0
2004/3/8 19:00,0,0,0,0
2004/3/8 19:15,0,0,0,0
2004/3/8 19:30,0,0,0,0
2004/3/8 19:45,0,0,0,0
2004/3/8 20:00,0,0,0,0
2004/3/8 20:15,0,0,0,0
2004/3/8 20:30,0,0,0,0
2004/3/8 20:45,4.43625E-05,0,5.43,0
2004/3/8 21:00,0.00010179,0,12.45,0
2004/3/8 21:15,8.05838E-05,0,9.86,0
2004/3/8 21:30,0.000059085,0,7.23,0
2004/3/8 21:45,0.000021645,0,2.65,0
2004/3/8 22:00,8.99925E-05,0,4.06,0
2004/3/8 22:15,0,0,0,0
2004/3/8 22:30,0,0,0,0
2004/3/8 22:45,0,0,0,0
2004/3/8 23:00,0,0,0,0
2004/3/8 23:15,0,0,0,0
2004/3/8 23:30,0,0,0,0
2004/3/8 23:45,0,0,0,0
2004/3/9 0:00,0,0,0,0
2004/3/9 0:15,0,0,0,0
2004/3/9 0:30,0,0,0,0
2004/3/9 0:45,0,0,0,0
2004/3/9 1:00,0,0,0,0
2004/3/9 1:15,0,0,0,0
2004/3/9 1:30,0,0,0,0
2004/3/9 1:45,0,0,0,0
2004/3/9 2:00,0,0,0,0
2004/3/9 2:15,0,0,0,0
2004/3/9 2:30,0,0,0,0
2004/3/9 2:45,0,0,0,0
2004/3/9 3:00,0,0,0,0
2004/3/9 3:15,0,0,0,0
2004/3/9 3:30,0,0,0,0
2004/3/9 3:45,0,0,0,0
2004/3/9 4:00,0,0,0,0
2004/3/9 4:15,5.68425E-05,0,6.95,0
2004/3/9 4:30,9.78413E-05,0,11.97,0
2004/3/9 4:45,0.00007059,0,8.63,0
2004/3/9 5:00,0.000066105,0,8.09,0
2004/3/9 5:15,5.18213E-05,0,6.34,0
2004/3/9 5:30,0.000043095,0,5.27,0
2004/3/9 5:45,0.000021645,0,2.65,0
2004/3/9 6:00,3.15413E-05,0,3.86,0
2004/3/9 6:15,0.000055185,0,6.75,0
2004/3/9 6:30,5.60138E-05,0,6.85,0
2004/3/9 6:45,0.00003003,0,0,0
2004/3/9 7:00,0,0,0,0
2004/3/9 7:15,0,0,0,0
2004/3/9 7:30,0,0,0,0
2004/3/9 7:45,0,0,0,0
2004/3/9 8:00,0,0,0,0
2004/3/9 8:15,0,0,0,0
2004/3/9 8:30,0,0,0,0
2004/3/9 8:45,0,0,0,0
2004/3/9 9:00,0,0,0,0
2004/3/9 9:15,0,0,0,0
2004/3/9 9:30,0,0,0,0
2004/3/9 9:45,0,0,0,0
2004/3/9 10:00,0,0,0,0
2004/3/9 10:15,0,0,0,0
2004/3/9 10:30,0,0,0,0
2004/3/9 10:45,0,0,0,0
2004/3/9 11:00,0,0,0,0
2004/3/9 11:15,0,0,0,0
2004/3/9 11:30,0,0,0,0
2004/3/9 11:45,0,0,0,0
2004/3/9 12:00,0,0,0,0
2004/3/9 12:15,0,0,0,0
2004/3/9 12:30,0,0,0,0
2004/3/9 12:45,0,0,0,0
2004/3/9 13:00,0,0,0,0
2004/3/9 13:15,0,0,0,0
2004/3/9 13:30,0,0,0,0
2004/3/9 13:45,0,0,0,0
2004/3/9 14:00,0,0,0,0
2004/3/9 14:15,0,0,0,0
2004/3/9 14:30,0,0,0,0
2004/3/9 14:45,0,0,0,0
2004/3/9 15:00,0,0,0,0
2004/3/9 15:15,0,0,0,0
2004/3/9 15:30,0,0,0,0
2004/3/9 15:45,0,0,0,0
2004/3/9 16:00,0,0,0,0
2004/3/9 16:15,0,0,0,0
2004/3/9 16:30,0,0,0,0
2004/3/9 16:45,0,0,0,0
2004/3/9 17:00,0,0,0,0
2004/3/9 17:15,0,0,0,0
2004/3/9 17:30,0,0,0,0
2004/3/9 17:45,0,0,0,0
2004/3/9 18:00,0,0,0,0
2004/3/9 18:15,0,0,0,0
2004/3/9 18:30,0,0,0,0
2004/3/9 18:45,0,0,0,0
2004/3/9 19:00,0,0,0,0
2004/3/9 19:15,0,0,0,0
2004/3/9 19:30,0,0,0,0
2004/3/9 19:45,0,0,0,0
2004/3/9 20:00,0,0,0,0
2004/3/9 20:15,0,0,0,0
2004/3/9 20:30,0,0,0,0
2004/3/9 20:45,0,0,0,0
2004/3/9 21:00,0,0,0,0
2004/3/9 21:15,0,0,0,0
2004/3/9 21:30,0,0,0,0
2004/3/9 21:45,0,0,0,0
2004/3/9 22:00,0,0,0,0
2004/3/9 22:15,0,0,0,0
2004/3/9 22:30,0,0,0,0
2004/3/9 22:45,0,0,0,0
2004/3/9 23:00,0,0,0,0
2004/3/9 23:15,0,0,0,0
2004/3/9 23:30,0,0,0,0
2004/3/9 23:45,0,0,0,0
2004/3/10 0:00,0,0,0,0
2004/3/10 0:15,0,0,0,0
2004/3/10 0:30,0,0,0,0
2004/3/10 0:45,0,0,0,0
2004/3/10 1:00,0,0,0,0
2004/3/10 1:15,0,0,0,0
2004/3/10 1:30,0,0,0,0
2004/3/10 1:45,0,0,0,0
2004/3/10 2:00,0,0,0,0
2004/3/10 2:15,0,0,0,0
2004/3/10 2:30,0,0,0,0
2004/3/10 2:45,0,0,0,0
2004/3/10 3:00,0,0,0,0
2004/3/10 3:15,0,0,0,0
2004/3/10 3:30,0,0,0,0
2004/3/10 3:45,0,0,0,0
2004/3/10 4:00,0,0,0,0
2004/3/10 4:15,0,0,0,0
2004/3/10 4:30,0,0,0,0
2004/3/10 4:45,0,0,0,0
2004/3/10 5:00,2.22788E-05,0,2.72,0
2004/3/10 5:15,9.68175E-05,0,11.85,0
2004/3/10 5:30,0.00008775,0,10.73,0
2004/3/10 5:45,0.00004758,0,5.82,0
2004/3/10 6:00,3.31988E-05,0,4.06,0
2004/3/10 6:15,3.20288E-05,0,3.92,0
2004/3/10 6:30,4.04138E-05,0,4.95,0
2004/3/10 6:45,3.71475E-05,0,0.9,0
2004/3/10 7:00,0,0,0,0
2004/3/10 7:15,0,0,0,0
2004/3/10 7:30,0,0,0,0
2004/3/10 7:45,0,0,0,0
2004/3/10 8:00,0,0,0,0
2004/3/10 8:15,0,0,0,0
2004/3/10 8:30,0,0,0,0
2004/3/10 8:45,0,0,0,0
2004/3/10 9:00,0,0,0,0
2004/3/10 9:15,0,0,0,0
2004/3/10 9:30,0,0,0,0
2004/3/10 9:45,0,0,0,0
2004/3/10 10:00,0,0,0,0
2004/3/10 10:15,0,0,0,0
2004/3/10 10:30,0,0,0,0
2004/3/10 10:45,0,0,0,0
2004/3/10 11:00,0,0,0,0
2004/3/10 11:15,0,0,0,0
2004/3/10 11:30,0,0,0,0
2004/3/10 11:45,0,0,0,0
2004/3/10 12:00,0,0,0,0
2004/3/10 12:15,0,0,0,0
2004/3/10 12:30,0,0,0,0
2004/3/10 12:45,0,0,0,0
2004/3/10 13:00,0,0,0,0
2004/3/10 13:15,0,0,0,0
2004/3/10 13:30,0,0,0,0
2004/3/10 13:45,0,0,0,0
2004/3/10 14:00,0,0,0,0
2004/3/10 14:15,0,0,0,0
2004/3/10 14:30,0,0,0,0
2004/3/10 14:45,0,0,0,0
2004/3/10 15:00,0,0,0,0
2004/3/10 15:15,0,0,0,0
2004/3/10 15:30,0,0,0,0
2004/3/10 15:45,0,0,0,0
2004/3/10 16:00,0,0,0,0
2004/3/10 16:15,0,0,0,0
2004/3/10 16:30,0,0,0,0
2004/3/10 16:45,0,0,0,0
2004/3/10 17:00,0,0,0,0
2004/3/10 17:15,0,0,0,0
2004/3/10 17:30,0,0,0,0
2004/3/10 17:45,0,0,0,0